星链-35505(STARLINK-35505)
导读
STARLINK-35505是美国太空探索技术公司(SpaceX)“星链”卫星互联网星座项目的一颗量产低轨通信卫星,于2025年11月6日发射入轨。作为星链扩容部署的组成部分,它运行在近地轨道,搭载Ku/Ka波段通信载荷与光学星间链路,依托相控阵技术提供高速低延迟宽带服务,可补充全球网络覆盖,尤其改善偏远地区互联网接入能力,延续星链卫星自主避撞、末期主动离轨焚毁的设计规范,服务全球互联通信网络构建。
Basic Information
目录编号:
66329
目录名称:
STARLINK-35505
国际标识:
2025-253L
轨道中心:
EARTH
卫星名称:
星链-35505
卫星全名:
星链-35505(STARLINK-35505)
卫星状态:
在轨 (已飞行302 天)
发射日期:
2025-11-06 UTC
国别 :
美国
(US)
星等 :
--
Orbit Information
| 数据来源 | 国际轨道数据 |
| 星历时间: | 2026-09-04T12:32:41+0800 13小时前 查看轨道信息 |
| 半长轴: | 6861.169km |
| 偏心率: | 0.0001923 |
| 轨道倾角: | 42.999° |
| 近地点辐角 | 284.921° |
| 升交点赤经 | 284.440° |
| 平近点角 | 75.143° |
| 近地点: | 481.712km |
| 远地点: | 484.352km |
| 周期: | 94.266分钟 |
| 每日圈数: | 15.275858 |
Detailed Information
固有亮度:
5
最大亮度:
2.5
卫星平台:
Starlink V1.0
覆盖范围:
全球
运营商:
太空探索技术公司
运营商所在国:
美国
制造商(研发单位):
太空探索技术公司
制造商所在国:
美国
使用方式:
暂无
Satellite Introduction
Starlink 计划是 SpaceX 推出的全球卫星互联网项目,通过发射低轨道卫星,为全球尤其是偏远地区提供高速、低延迟的互联网服务。自 2019 年起,Starlink 已部署数千颗卫星,旨在缩小全球数字鸿沟,推动互联网普及。该项目还为军事、航空等行业提供通信支持,带来广泛经济效益。
2D Orbit Map
3D Orbit Map
Orbit Altitude Analysis Chart
Orbit Inclination Analysis Chart
Orbit Comprehensive Analysis Chart
View Comprehensive ChartConjunction Data List
| Event ID | Objects | TCA | Miss Dist (km) | Collision Risk Probability | Collision Risk Index (CRI) | Action |
|---|---|---|---|---|---|---|
| CDM_260906-075006-163906-632921 |
STARLINK-32341
(61639)
STARLINK-35505
(66329) | 2026-09-06T 07:50:27+0000 |
0.733 km
远距离 | 3.60299E-5 中风险 | 0.66 | |
| CDM_260906-162806-163906-632921 |
STARLINK-32341
(61639)
STARLINK-35505
(66329) | 2026-09-06T 16:28:17+0000 |
0.846 km
远距离 | 2.252538E-5 中风险 | 0.62 | |
| CDM_260906-180206-163906-632921 |
STARLINK-32341
(61639)
STARLINK-35505
(66329) | 2026-09-06T 18:02:27+0000 |
0.973 km
远距离 | 1.403431E-5 中风险 | 0.58 | |
| CDM_260907-050505-637406-632921 |
STARLINK-6156
(56374)
STARLINK-35505
(66329) | 2026-09-07T 05:05:55+0000 |
1.026 km
极远距离 | 5.047251E-6 低风险 | 0.49 | |
| CDM_260906-061606-163906-632922 |
STARLINK-32341
(61639)
STARLINK-35505
(66329) | 2026-09-06T 06:16:17+0000 |
1.728 km
极远距离 | 2.1482E-6 低风险 | 0.42 | |
| CDM_260906-092406-163906-632921 |
STARLINK-32341
(61639)
STARLINK-35505
(66329) | 2026-09-06T 09:24:36+0000 |
1.772 km
极远距离 | 2.00256E-6 低风险 | 0.41 | |
| CDM_260906-145406-163906-632921 |
STARLINK-32341
(61639)
STARLINK-35505
(66329) | 2026-09-06T 14:54:08+0000 |
2.500 km
极远距离 | 9.413088E-7 极低风险 | 0.34 | |
| CDM_260906-193606-163906-632921 |
STARLINK-32341
(61639)
STARLINK-35505
(66329) | 2026-09-06T 19:36:36+0000 |
2.668 km
极远距离 | 8.520831E-7 极低风险 | 0.34 |

